N750GK KBCT-KCRG

Flight info

Callsign N750GK
Flight time 0h 45m
Altitude 24000
Route MYZNR3 MATLK ORL HAINY QUBEN2
Aircraft C750/M-VGDW/C

Departure

Time 2026-04-22 06:44
Airport Boca Raton Airport (KBCT)

Arrival

Time 2026-04-22 07:30
Airport Jacksonville Executive at Craig Airport (KCRG)
Time Latitude Longitude Altitude Speed Heading
2026-04-22 06:34 26.38282 -80.10550 26 ft 0 kts 43°
2026-04-22 06:41 26.38285 -80.10547 24 ft 4 kts 43°
2026-04-22 06:41 26.38283 -80.10519 25 ft 4 kts 137°
2026-04-22 06:42 26.38255 -80.10504 19 ft 6 kts 157°
2026-04-22 06:42 26.38229 -80.10465 22 ft 6 kts 78°
2026-04-22 06:42 26.38271 -80.10415 22 ft 11 kts 44°
2026-04-22 06:42 26.38322 -80.10359 22 ft 10 kts 44°
2026-04-22 06:43 26.38382 -80.10294 23 ft 13 kts 44°
2026-04-22 06:43 26.38447 -80.10224 21 ft 13 kts 44°
2026-04-22 06:43 26.38495 -80.10164 23 ft 8 kts 74°
2026-04-22 06:43 26.38455 -80.10121 20 ft 10 kts 186°
2026-04-22 06:44 26.38376 -80.10199 20 ft 43 kts 224°
2026-04-22 06:44 26.37850 -80.10769 28 ft 154 kts 222°
2026-04-22 06:44 26.37042 -80.11679 619 ft 169 kts 225°
2026-04-22 06:44 26.36518 -80.12892 1392 ft 183 kts 256°
2026-04-22 06:45 26.36639 -80.14330 1999 ft 196 kts 301°
2026-04-22 06:45 26.37473 -80.15542 2770 ft 201 kts 318°
2026-04-22 06:45 26.38714 -80.16280 3531 ft 210 kts 347°
2026-04-22 06:45 26.40177 -80.16783 4298 ft 231 kts 348°
2026-04-22 06:46 26.41775 -80.17414 5039 ft 255 kts 342°
2026-04-22 06:46 26.43462 -80.18218 5764 ft 273 kts 339°
2026-04-22 06:46 26.45204 -80.19067 6858 ft 274 kts 339°
2026-04-22 06:46 26.46980 -80.19888 7942 ft 277 kts 339°
2026-04-22 06:47 26.48774 -80.20706 9077 ft 280 kts 338°
2026-04-22 06:47 26.50583 -80.21545 10160 ft 284 kts 338°
2026-04-22 06:47 26.52382 -80.22554 10703 ft 303 kts 324°
2026-04-22 06:47 26.53789 -80.24456 10781 ft 336 kts 302°
2026-04-22 06:48 26.54563 -80.26001 10934 ft 351 kts 299°
2026-04-22 06:48 26.55725 -80.28411 11747 ft 353 kts 299°
2026-04-22 06:48 26.56963 -80.30792 12512 ft 357 kts 301°
2026-04-22 06:48 26.58125 -80.33265 13181 ft 362 kts 293°
2026-04-22 06:49 26.59040 -80.35897 13988 ft 364 kts 291°
2026-04-22 06:49 26.59981 -80.38544 14686 ft 368 kts 292°
2026-04-22 06:49 26.60946 -80.41189 15448 ft 368 kts 292°
2026-04-22 06:49 26.61895 -80.43862 16154 ft 371 kts 291°
2026-04-22 06:50 26.63019 -80.46476 16707 ft 378 kts 304°
2026-04-22 06:50 26.64812 -80.48627 17441 ft 381 kts 320°
2026-04-22 06:50 26.67111 -80.50116 18176 ft 386 kts 336°
2026-04-22 06:50 26.69623 -80.51204 18890 ft 389 kts 338°
2026-04-22 06:51 26.72138 -80.52249 19594 ft 391 kts 338°
2026-04-22 06:51 26.74696 -80.53324 20321 ft 394 kts 337°
2026-04-22 06:51 26.77263 -80.54423 21058 ft 396 kts 336°
2026-04-22 06:51 26.79850 -80.55528 21799 ft 399 kts 336°
2026-04-22 06:52 26.82492 -80.56541 22481 ft 404 kts 339°
2026-04-22 06:52 26.85183 -80.57481 23219 ft 407 kts 339°
2026-04-22 06:52 26.87895 -80.58438 23921 ft 410 kts 339°
2026-04-22 06:52 26.90619 -80.59420 24504 ft 413 kts 338°
2026-04-22 06:53 26.93371 -80.60410 25098 ft 417 kts 338°
2026-04-22 06:53 26.96146 -80.61397 25667 ft 420 kts 338°
2026-04-22 06:53 26.98942 -80.62392 26198 ft 425 kts 338°
2026-04-22 06:53 27.01820 -80.63427 26245 ft 442 kts 338°
2026-04-22 06:54 27.04798 -80.64499 26249 ft 458 kts 338°
2026-04-22 06:54 27.07882 -80.65600 26253 ft 472 kts 339°
2026-04-22 06:54 27.11051 -80.66730 26256 ft 484 kts 339°
2026-04-22 06:54 27.14293 -80.67892 26249 ft 492 kts 339°
2026-04-22 06:55 27.17569 -80.69068 26256 ft 497 kts 339°
2026-04-22 06:55 27.20857 -80.70247 26251 ft 498 kts 339°
2026-04-22 06:55 27.24167 -80.71435 26248 ft 499 kts 339°
2026-04-22 06:55 27.27476 -80.72625 26249 ft 499 kts 339°
2026-04-22 06:56 27.30742 -80.73799 26248 ft 496 kts 339°
2026-04-22 06:56 27.33989 -80.74963 26243 ft 487 kts 339°
2026-04-22 06:56 27.37247 -80.76148 26232 ft 485 kts 338°
2026-04-22 06:56 27.40417 -80.77456 26236 ft 486 kts 336°
2026-04-22 06:57 27.43549 -80.78778 26251 ft 487 kts 336°
2026-04-22 06:57 27.46725 -80.80102 26248 ft 487 kts 336°
2026-04-22 06:57 27.49911 -80.81417 26261 ft 488 kts 336°
2026-04-22 06:57 27.53095 -80.82740 26263 ft 487 kts 336°
2026-04-22 06:58 27.56271 -80.84072 26266 ft 487 kts 336°
2026-04-22 06:58 27.59451 -80.85402 26267 ft 487 kts 336°
2026-04-22 06:58 27.62633 -80.86727 26268 ft 487 kts 336°
2026-04-22 06:58 27.65811 -80.88053 26266 ft 487 kts 336°
2026-04-22 06:59 27.68994 -80.89385 26267 ft 487 kts 336°
2026-04-22 06:59 27.72171 -80.90716 26266 ft 487 kts 336°
2026-04-22 06:59 27.75345 -80.92043 26269 ft 485 kts 336°
2026-04-22 06:59 27.78513 -80.93369 26274 ft 487 kts 336°
2026-04-22 07:00 27.81695 -80.94705 26271 ft 486 kts 336°
2026-04-22 07:00 27.84746 -80.96210 26267 ft 483 kts 331°
2026-04-22 07:00 27.87785 -80.97860 26268 ft 484 kts 331°
2026-04-22 07:00 27.90835 -80.99469 26263 ft 484 kts 332°
2026-04-22 07:01 27.93896 -81.01078 26269 ft 484 kts 331°
2026-04-22 07:01 27.96944 -81.02710 26271 ft 484 kts 331°
2026-04-22 07:01 27.99994 -81.04355 26269 ft 484 kts 331°
2026-04-22 07:01 28.03042 -81.05982 26280 ft 484 kts 331°
2026-04-22 07:02 28.06092 -81.07603 26274 ft 484 kts 331°
2026-04-22 07:02 28.09136 -81.09230 26282 ft 485 kts 331°
2026-04-22 07:02 28.12183 -81.10867 26276 ft 485 kts 331°
2026-04-22 07:02 28.15236 -81.12503 26287 ft 485 kts 331°
2026-04-22 07:03 28.18287 -81.14135 26288 ft 485 kts 331°
2026-04-22 07:03 28.21335 -81.15769 26286 ft 485 kts 331°
2026-04-22 07:03 28.24344 -81.17385 26287 ft 485 kts 331°
2026-04-22 07:03 28.27386 -81.19019 26288 ft 485 kts 331°
2026-04-22 07:04 28.30443 -81.20661 26294 ft 485 kts 331°
2026-04-22 07:04 28.33497 -81.22302 26297 ft 485 kts 331°
2026-04-22 07:04 28.36546 -81.23943 26288 ft 485 kts 331°
2026-04-22 07:04 28.39601 -81.25588 26291 ft 486 kts 331°
2026-04-22 07:05 28.42651 -81.27230 26289 ft 485 kts 331°
2026-04-22 07:05 28.45701 -81.28874 26284 ft 484 kts 331°
2026-04-22 07:05 28.48744 -81.30516 26284 ft 485 kts 331°
2026-04-22 07:05 28.51840 -81.32057 26261 ft 488 kts 336°
2026-04-22 07:06 28.55104 -81.33147 26264 ft 491 kts 343°
2026-04-22 07:06 28.58500 -81.33764 26265 ft 496 kts 350°
2026-04-22 07:06 28.61951 -81.33998 26273 ft 497 kts 353°
2026-04-22 07:06 28.65404 -81.34220 26278 ft 497 kts 352°
2026-04-22 07:07 28.68808 -81.34461 26296 ft 497 kts 352°
2026-04-22 07:07 28.72268 -81.34695 26282 ft 497 kts 353°
2026-04-22 07:07 28.75722 -81.34913 26282 ft 497 kts 353°
2026-04-22 07:07 28.79186 -81.35135 26283 ft 497 kts 353°
2026-04-22 07:08 28.82643 -81.35369 26283 ft 497 kts 353°
2026-04-22 07:08 28.86098 -81.35602 26290 ft 497 kts 353°
2026-04-22 07:08 28.89559 -81.35828 26292 ft 497 kts 353°
2026-04-22 07:08 28.93012 -81.36053 26292 ft 497 kts 353°
2026-04-22 07:09 28.96464 -81.36283 26291 ft 497 kts 353°
2026-04-22 07:09 28.99884 -81.36512 26290 ft 497 kts 353°
2026-04-22 07:09 29.03343 -81.36745 26290 ft 498 kts 353°
2026-04-22 07:09 29.06798 -81.36983 26291 ft 497 kts 353°
2026-04-22 07:10 29.10258 -81.37220 26292 ft 497 kts 353°
2026-04-22 07:10 29.13712 -81.37454 26293 ft 497 kts 353°
2026-04-22 07:10 29.17176 -81.37689 26293 ft 497 kts 353°
2026-04-22 07:10 29.20632 -81.37925 26296 ft 497 kts 353°
2026-04-22 07:11 29.24004 -81.38151 25837 ft 469 kts 353°
2026-04-22 07:11 29.27157 -81.38357 25212 ft 438 kts 352°
2026-04-22 07:11 29.30154 -81.38566 24607 ft 424 kts 352°
2026-04-22 07:11 29.33075 -81.38772 24015 ft 420 kts 352°
2026-04-22 07:12 29.35944 -81.38965 23383 ft 416 kts 353°
2026-04-22 07:12 29.38834 -81.39154 22793 ft 414 kts 353°
2026-04-22 07:12 29.41705 -81.39348 22213 ft 411 kts 353°
2026-04-22 07:12 29.44557 -81.39542 21630 ft 409 kts 353°
2026-04-22 07:13 29.47395 -81.39733 21066 ft 406 kts 354°
2026-04-22 07:13 29.50209 -81.39922 20492 ft 404 kts 354°
2026-04-22 07:13 29.52981 -81.40291 19907 ft 399 kts 346°
2026-04-22 07:13 29.55587 -81.41311 19367 ft 395 kts 334°
2026-04-22 07:14 29.57902 -81.42899 18812 ft 392 kts 322°
2026-04-22 07:14 29.59906 -81.44995 18229 ft 388 kts 313°
2026-04-22 07:14 29.61787 -81.47219 17680 ft 387 kts 313°
2026-04-22 07:14 29.63672 -81.49418 17124 ft 385 kts 314°
2026-04-22 07:15 29.65545 -81.51601 16581 ft 383 kts 314°
2026-04-22 07:15 29.67406 -81.53789 16036 ft 381 kts 313°
2026-04-22 07:15 29.69253 -81.55958 15498 ft 379 kts 314°
2026-04-22 07:15 29.71115 -81.58101 14746 ft 376 kts 314°
2026-04-22 07:16 29.72918 -81.60161 14184 ft 354 kts 314°
2026-04-22 07:16 29.74607 -81.62113 13661 ft 335 kts 314°
2026-04-22 07:16 29.76265 -81.63896 13160 ft 317 kts 322°
2026-04-22 07:16 29.78227 -81.64895 12703 ft 303 kts 347°
2026-04-22 07:17 29.80264 -81.65170 12327 ft 288 kts 356°
2026-04-22 07:17 29.82227 -81.65335 11933 ft 278 kts 356°
2026-04-22 07:17 29.84106 -81.65498 11546 ft 270 kts 356°
2026-04-22 07:17 29.85979 -81.65670 11161 ft 262 kts 356°
2026-04-22 07:18 29.87746 -81.65832 10783 ft 248 kts 356°
2026-04-22 07:18 29.89426 -81.65983 10435 ft 244 kts 356°
2026-04-22 07:18 29.91115 -81.66134 10075 ft 243 kts 356°
2026-04-22 07:18 29.92792 -81.66186 9679 ft 240 kts
2026-04-22 07:19 29.94285 -81.65404 9324 ft 235 kts 38°
2026-04-22 07:19 29.95399 -81.64039 9048 ft 233 kts 49°
2026-04-22 07:19 29.96452 -81.62603 8733 ft 234 kts 49°
2026-04-22 07:19 29.97510 -81.61184 8394 ft 232 kts 49°
2026-04-22 07:20 29.98567 -81.59782 8057 ft 230 kts 48°
2026-04-22 07:20 29.99608 -81.58397 7724 ft 227 kts 48°
2026-04-22 07:20 30.00637 -81.57023 7397 ft 225 kts 48°
2026-04-22 07:20 30.01656 -81.55663 7076 ft 223 kts 47°
2026-04-22 07:21 30.02667 -81.54313 6755 ft 221 kts 47°
2026-04-22 07:21 30.03654 -81.52996 6434 ft 219 kts 47°
2026-04-22 07:21 30.04651 -81.51665 6111 ft 219 kts 48°
2026-04-22 07:21 30.05645 -81.50337 5810 ft 219 kts 49°
2026-04-22 07:22 30.06638 -81.49009 5500 ft 218 kts 49°
2026-04-22 07:22 30.07630 -81.47683 5191 ft 218 kts 49°
2026-04-22 07:22 30.08610 -81.46372 4879 ft 208 kts 50°
2026-04-22 07:22 30.09513 -81.45165 4594 ft 190 kts 50°
2026-04-22 07:23 30.10349 -81.44046 4339 ft 180 kts 51°
2026-04-22 07:23 30.11158 -81.42963 4086 ft 177 kts 51°
2026-04-22 07:23 30.11960 -81.41888 3835 ft 176 kts 51°
2026-04-22 07:23 30.12760 -81.40819 3588 ft 180 kts 51°
2026-04-22 07:24 30.13754 -81.39904 3330 ft 181 kts 37°
2026-04-22 07:24 30.14788 -81.39096 3073 ft 182 kts 37°
2026-04-22 07:24 30.15824 -81.38262 2813 ft 181 kts 38°
2026-04-22 07:24 30.16853 -81.37427 2550 ft 180 kts 38°
2026-04-22 07:25 30.17878 -81.36597 2296 ft 179 kts 38°
2026-04-22 07:25 30.19000 -81.35985 2003 ft 181 kts 13°
2026-04-22 07:25 30.20233 -81.36089 1890 ft 176 kts 343°
2026-04-22 07:25 30.21277 -81.36830 1899 ft 179 kts 317°
2026-04-22 07:26 30.22154 -81.37854 1926 ft 181 kts 315°
2026-04-22 07:26 30.23049 -81.38872 1921 ft 183 kts 315°
2026-04-22 07:26 30.23956 -81.39906 1920 ft 183 kts 315°
2026-04-22 07:26 30.24860 -81.40945 1918 ft 183 kts 315°
2026-04-22 07:27 30.25764 -81.41984 1908 ft 182 kts 315°
2026-04-22 07:27 30.26621 -81.42968 1882 ft 156 kts 315°
2026-04-22 07:27 30.27343 -81.43798 1755 ft 143 kts 315°
2026-04-22 07:27 30.28051 -81.44613 1580 ft 142 kts 315°
2026-04-22 07:28 30.29438 -81.46208 1224 ft 140 kts 315°
2026-04-22 07:28 30.30125 -81.46997 1026 ft 138 kts 316°
2026-04-22 07:28 30.30802 -81.47758 830 ft 132 kts 316°
2026-04-22 07:29 30.31442 -81.48500 641 ft 129 kts 315°
2026-04-22 07:29 30.32063 -81.49230 476 ft 125 kts 315°
2026-04-22 07:29 30.32682 -81.49933 326 ft 124 kts 315°
2026-04-22 07:29 30.33286 -81.50637 162 ft 122 kts 314°
2026-04-22 07:30 30.33874 -81.51316 49 ft 111 kts 315°
2026-04-22 07:30 30.34252 -81.51749 44 ft 36 kts 315°
2026-04-22 07:30 30.34358 -81.51876 46 ft 12 kts 294°
2026-04-22 07:30 30.34318 -81.51902 46 ft 8 kts 181°
2026-04-22 07:31 30.34257 -81.51902 44 ft 9 kts 180°
2026-04-22 07:31 30.34189 -81.51902 43 ft 10 kts 171°
2026-04-22 07:31 30.34140 -81.51857 43 ft 8 kts 136°
2026-04-22 07:31 30.34108 -81.51839 44 ft 6 kts 196°
2026-04-22 07:32 30.34082 -81.51865 45 ft 3 kts 225°
2026-04-22 07:32 30.34062 -81.51877 47 ft 4 kts 182°
2026-04-22 07:32 30.34042 -81.51848 47 ft 5 kts 123°
2026-04-22 07:32 30.34030 -81.51850 47 ft 1 kts 226°